Find Iridium Next SV112

NORAD ID: 41925 Int'l Des: 2017-003 Owner: IRIDS Country: US Constellation: Iridium NEXT operational
LEOCIRCULARPOLAR

当前视图

正在加载3D地球...

About Iridium Next SV112

Iridium Next SV112 (NORAD 41925) is a Iridium NEXT constellation satellite launched Jan 14, 2017 by IRIDS of US. It operates in LEO, CIRCULAR, POLAR orbit with a mass of 860.00 kg.

关于 Iridium Next SV112

正在加载描述...

即将过境

Passes for default location (London). Set your location on the main map for personalized predictions.

高度历史

Loading altitude history...

两行轨道根数

1 41925U 17003J 26194.71534821 .00000128 00000-0 38474-4 0 9996
2 41925 86.3943 77.2142 0002253 85.4729 274.6724 14.34217011497079
Epoch: Jul 13, 2026 • Age: 13 hours

当前状态

高度 803.1 km
远地点 / 近地点 N/A
速度 7.45 km/s
星下点 -62.65°S, 43.81°E
发射日期 Jan 14, 2017
运行时间 9.4 years
类型 communications

技术详情

分类 Payload
质量 860.00 kg
干质量 700.00 kg
总质量 860.00 kg
长度 3.10 m
直径 1.50 m
跨度 9.40 m
形状 Half Hex Prism+2 pan
制造商 OATKGA
平台类型 EliteBus
阶段状态 In Orbit
所有者/国家 IRIDS/US

Most Searched